QPF
0.00 0.00 0.00 0.00 0.00 0.00 0.00 0.00 0.00 0.00 0.00 0.00 0.00 0.00 0.00 0.00 0.00 0.00 0.00 0.00 0.00 0.00 0.00 0.00 0.00 0.00 0.00 0.00 0.00 0.00 0.00 0.00 0.01 0.01 0.01 0.01 0.00 0.00 0.01 0.01 0.03 0.04 0.08 0.04
0.00 0.00 0.00 0.00 0.00 0.00 0.00 0.00 0.00 0.00 0.00 0.00 0.00 0.00 0.00 0.00 0.00 0.00 0.00 0.00 0.00 0.00 0.00 0.00 0.00 0.00 0.00 0.00 0.00 0.00 0.00 0.00 0.00 0.02 0.02 0.01 0.01 0.01 0.01 0.01 0.01 0.03 0.06 0.13
0.00 0.00 0.00 0.00 0.00 0.00 0.00 0.00 0.00 0.00 0.00 0.00 0.00 0.00 0.00 0.00 0.00 0.00 0.00 0.00 0.00 0.00 0.00 0.00 0.00 0.00 0.00 0.00 0.00 0.00 0.00 0.00 0.00 0.00 0.01 0.02 0.04 0.04 0.03 0.01 0.01 0.02 0.04 0.04
0.00 0.00 0.00 0.00 0.00 0.00 0.00 0.00 0.00 0.00 0.00 0.00 0.00 0.00 0.00 0.00 0.00 0.00 0.00 0.00 0.00 0.00 0.00 0.00 0.00 0.00 0.00 0.00 0.00 0.00 0.00 0.00 0.00 0.00 0.00 0.00 0.01 0.01 0.03 0.05 0.04 0.02 0.02 0.02
0.00 0.00 0.00 0.00 0.00 0.00 0.00 0.00 0.00 0.00 0.00 0.00 0.00 0.00 0.00 0.00 0.00 0.00 0.00 0.00 0.00 0.00 0.00 0.00 0.00 0.00 0.00 0.00 0.00 0.00 0.00 0.00 0.00 0.00 0.00 0.00 0.00 0.00 0.01 0.03 0.06 0.10 0.10 0.12
0.00 0.00 0.00 0.00 0.00 0.00 0.00 0.00 0.00 0.00 0.00 0.00 0.00 0.00 0.00 0.00 0.00 0.00 0.00 0.00 0.00 0.00 0.00 0.00 0.00 0.00 0.00 0.00 0.00 0.00 0.00 0.00 0.00 0.00 0.00 0.00 0.00 0.00 0.00 0.00 0.00 0.00 0.01 0.08
0.00 0.00 0.00 0.00 0.00 0.00 0.00 0.00 0.00 0.00 0.00 0.00 0.00 0.00 0.00 0.00 0.00 0.00 0.00 0.00 0.00 0.00 0.00 0.00 0.00 0.00 0.00 0.00 0.00 0.00 0.00 0.00 0.00 0.00 0.00 0.00 0.00 0.00 0.00 0.00 0.00 0.00 0.00 0.00
0.00 0.00 0.00 0.00 0.00 0.00 0.00 0.00 0.00 0.00 0.00 0.00 0.00 0.00 0.00 0.00 0.00 0.00 0.00 0.00 0.00 0.00 0.00 0.00 0.00 0.00 0.00 0.00 0.00 0.00 0.00 0.00 0.00 0.00 0.00 0.00 0.00 0.00 0.00 0.00 0.00 0.00 0.00 0.00
0.00 0.00 0.00 0.00 0.00 0.00 0.00 0.00 0.00 0.00 0.00 0.00 0.00 0.00 0.00 0.00 0.00 0.00 0.00 0.00 0.00 0.00 0.00 0.00 0.00 0.00 0.00 0.00 0.00 0.00 0.00 0.00 0.00 0.00 0.00 0.00 0.00 0.00 0.00 0.00 0.00 0.00 0.00 0.00
0.00 0.00 0.00 0.00 0.00 0.00 0.00 0.00 0.00 0.00 0.00 0.00 0.00 0.00 0.00 0.00 0.00 0.00 0.00 0.00 0.00 0.00 0.00 0.00 0.00 0.00 0.00 0.00 0.00 0.00 0.00 0.00 0.00 0.00 0.00 0.00 0.00 0.00 0.00 0.00 0.00 0.00 0.00 0.00
0.00 0.00 0.00 0.00 0.00 0.00 0.00 0.00 0.00 0.00 0.00 0.00 0.00 0.00 0.00 0.00 0.00 0.00 0.00 0.00 0.00 0.00 0.00 0.00 0.00 0.00 0.00 0.00 0.00 0.00 0.00 0.00 0.00 0.00 0.00 0.00 0.00 0.00 0.00 0.00 0.00 0.00 0.00 0.00
0.00 0.00 0.00 0.00 0.00 0.00 0.00 0.00 0.00 0.00 0.00 0.00 0.00 0.00 0.00 0.00 0.00 0.00 0.00 0.00 0.00 0.00 0.00 0.00 0.00 0.00 0.00 0.00 0.00 0.00 0.00 0.00 0.00 0.00 0.00 0.00 0.00 0.00 0.00 0.00 0.00 0.00 0.00 0.00
0.00 0.00 0.00 0.00 0.00 0.00 0.00 0.00 0.00 0.00 0.00 0.00 0.00 0.00 0.00 0.00 0.00 0.00 0.00 0.00 0.00 0.00 0.00 0.00 0.00 0.00 0.00 0.00 0.00 0.00 0.00 0.00 0.00 0.00 0.00 0.00 0.00 0.00 0.00 0.00 0.00 0.00 0.00 0.00
0.00 0.00 0.00 0.00 0.00 0.00 0.00 0.00 0.00 0.00 0.00 0.00 0.00 0.00 0.00 0.00 0.00 0.00 0.00 0.00 0.00 0.00 0.00 0.00 0.00 0.00 0.00 0.00 0.00 0.00 0.00 0.00 0.00 0.00 0.00 0.00 0.00 0.00 0.00 0.00 0.00 0.00 0.00 0.00
0.00 0.00 0.00 0.00 0.00 0.00 0.00 0.00 0.00 0.00 0.00 0.00 0.00 0.00 0.00 0.00 0.00 0.00 0.00 0.00 0.00 0.00 0.00 0.00 0.00 0.00 0.00 0.00 0.00 0.00 0.00 0.00 0.00 0.00 0.00 0.00 0.00 0.00 0.00 0.00 0.00 0.00 0.00 0.00
0.00 0.00 0.00 0.00 0.00 0.00 0.00 0.00 0.00 0.00 0.00 0.00 0.00 0.00 0.00 0.00 0.00 0.00 0.00 0.00 0.00 0.00 0.00 0.00 0.00 0.00 0.00 0.00 0.00 0.00 0.00 0.00 0.00 0.00 0.00 0.00 0.00 0.00 0.00 0.00 0.00 0.00 0.00 0.00
0.00 0.00 0.00 0.00 0.00 0.00 0.00 0.00 0.00 0.00 0.00 0.00 0.00 0.00 0.00 0.00 0.00 0.00 0.00 0.00 0.00 0.00 0.00 0.00 0.00 0.00 0.00 0.00 0.00 0.00 0.00 0.00 0.00 0.00 0.00 0.00 0.00 0.00 0.00 0.00 0.00 0.00 0.00 0.00
0.00 0.00 0.00 0.00 0.00 0.00 0.00 0.00 0.00 0.00 0.00 0.00 0.00 0.00 0.00 0.00 0.00 0.00 0.00 0.00 0.00 0.00 0.00 0.00 0.00 0.00 0.00 0.00 0.00 0.00 0.00 0.00 0.00 0.00 0.00 0.00 0.00 0.00 0.00 0.00 0.00 0.00 0.00 0.00
0.00 0.00 0.00 0.00 0.00 0.00 0.00 0.00 0.00 0.00 0.00 0.00 0.00 0.00 0.00 0.00 0.00 0.00 0.00 0.00 0.00 0.00 0.00 0.00 0.00 0.00 0.00 0.00 0.00 0.00 0.00 0.00 0.00 0.00 0.00 0.00 0.00 0.00 0.00 0.00 0.00 0.00 0.00 0.00
0.00 0.00 0.00 0.00 0.00 0.00 0.00 0.00 0.00 0.00 0.00 0.00 0.00 0.00 0.00 0.00 0.00 0.00 0.00 0.00 0.00 0.00 0.00 0.00 0.00 0.00 0.00 0.00 0.00 0.00 0.00 0.00 0.00 0.00 0.00 0.00 0.00 0.00 0.00 0.00 0.00 0.00 0.00 0.00
0.00 0.00 0.00 0.00 0.00 0.00 0.00 0.00 0.00 0.00 0.00 0.00 0.00 0.00 0.00 0.00 0.00 0.00 0.00 0.00 0.00 0.00 0.00 0.00 0.00 0.00 0.00 0.00 0.00 0.00 0.00 0.00 0.00 0.00 0.00 0.00 0.00 0.00 0.00 0.00 0.00 0.00 0.00 0.00
0.00 0.00 0.00 0.00 0.00 0.00 0.00 0.00 0.00 0.00 0.00 0.00 0.00 0.00 0.00 0.00 0.00 0.00 0.00 0.00 0.00 0.00 0.00 0.00 0.00 0.00 0.00 0.00 0.00 0.00 0.00 0.00 0.00 0.00 0.00 0.00 0.00 0.00 0.00 0.00 0.00 0.00 0.00 0.00
0.00 0.00 0.00 0.00 0.00 0.00 0.00 0.00 0.00 0.00 0.00 0.00 0.00 0.00 0.00 0.00 0.00 0.00 0.00 0.00 0.00 0.00 0.00 0.00 0.00 0.00 0.00 0.00 0.00 0.00 0.00 0.00 0.00 0.00 0.00 0.00 0.00 0.00 0.00 0.00 0.00 0.00 0.00 0.00
0.00 0.00 0.00 0.00 0.00 0.00 0.00 0.00 0.00 0.00 0.00 0.00 0.00 0.00 0.00 0.00 0.00 0.00 0.00 0.00 0.00 0.00 0.00 0.00 0.00 0.00 0.00 0.00 0.00 0.01 0.00 0.00 0.00 0.00 0.00 0.00 0.00 0.00 0.00 0.00 0.00 0.00 0.00 0.00
0.00 0.00 0.00 0.00 0.00 0.00 0.00 0.00 0.00 0.00 0.00 0.00 0.00 0.00 0.00 0.00 0.00 0.00 0.00 0.00 0.00 0.00 0.00 0.00 0.00 0.00 0.00 0.01 0.01 0.01 0.01 0.00 0.00 0.00 0.00 0.00 0.00 0.02 0.03 0.03 0.01 0.00 0.00 0.00
0.00 0.00 0.00 0.00 0.00 0.00 0.00 0.00 0.00 0.00 0.00 0.00 0.00 0.00 0.00 0.00 0.00 0.00 0.00 0.00 0.00 0.00 0.00 0.00 0.00 0.01 0.01 0.00 0.00 0.01 0.01 0.01 0.00 0.00 0.00 0.00 0.00 0.00 0.00 0.00 0.00 0.00 0.00 0.00
MSLP
1010.23 1009.81 1008.56 1008.41 1008.80 1008.51 1008.39 1008.44 1007.78 1007.42 1007.45 1007.66 1007.28 1006.77 1006.66 1006.61 1007.17 1007.71 1009.66 1010.56 1011.41 1012.01 1012.49 1012.62 1012.68 1012.41 1011.99 1011.85 1011.47 1011.23 1011.13 1011.31 1011.06 1011.69 1011.97 1012.09 1012.01 1011.93 1011.81 1011.70 1011.74 1012.05 1012.37 1012.93
1010.09 1008.82 1008.35 1008.61 1008.91 1009.20 1008.97 1008.53 1007.91 1007.57 1007.61 1007.87 1006.95 1006.20 1006.27 1006.52 1007.51 1008.19 1009.51 1010.73 1011.50 1012.00 1012.51 1012.74 1012.68 1012.51 1012.18 1012.13 1012.12 1011.92 1011.76 1011.70 1011.31 1011.33 1011.44 1011.53 1011.58 1011.72 1011.47 1011.35 1010.94 1011.06 1011.54 1011.80
1008.37 1008.34 1008.60 1009.12 1009.24 1009.36 1008.95 1008.47 1008.17 1007.95 1007.75 1007.44 1006.52 1005.39 1005.26 1007.95 1008.91 1009.79 1010.40 1011.15 1011.75 1012.22 1012.30 1012.52 1012.70 1012.80 1012.86 1012.69 1012.61 1012.31 1012.15 1012.12 1012.12 1011.92 1011.27 1011.20 1011.20 1011.43 1011.41 1011.25 1011.00 1010.80 1010.78 1010.85
1008.57 1008.32 1009.08 1009.04 1008.93 1009.27 1008.59 1008.66 1008.88 1008.68 1008.28 1006.69 1007.27 1005.35 1005.28 1007.01 1008.34 1009.61 1010.67 1011.32 1012.06 1012.40 1012.52 1012.77 1012.80 1012.82 1012.91 1012.93 1012.79 1012.59 1012.50 1012.18 1012.21 1012.19 1011.59 1011.35 1011.10 1011.11 1011.48 1011.35 1010.86 1010.25 1009.80 1009.74
1008.04 1008.59 1008.77 1008.68 1008.68 1009.17 1008.70 1009.16 1009.23 1008.92 1008.21 1007.38 1006.83 1006.64 1004.54 1006.44 1007.64 1009.26 1010.46 1011.38 1011.99 1012.43 1012.75 1012.69 1012.80 1012.82 1012.80 1013.30 1012.96 1012.92 1012.59 1012.27 1012.36 1012.27 1012.03 1011.49 1011.21 1011.12 1010.86 1010.71 1010.71 1010.47 1010.09 1009.69
1008.30 1008.98 1008.81 1008.42 1008.90 1009.08 1009.32 1009.49 1009.39 1009.25 1008.57 1007.02 1006.19 1006.51 1004.87 1006.00 1007.45 1009.35 1010.83 1011.74 1012.27 1012.57 1012.67 1012.57 1012.40 1012.55 1012.73 1013.04 1012.97 1012.76 1012.47 1012.07 1012.05 1011.95 1012.00 1011.55 1011.29 1011.01 1010.62 1010.46 1010.22 1009.97 1009.72 1009.48
1008.45 1008.62 1008.68 1008.95 1008.86 1009.32 1009.08 1008.93 1008.35 1008.11 1007.78 1006.06 1006.58 1006.59 1006.01 1008.10 1009.36 1010.16 1011.02 1011.99 1012.50 1012.66 1012.39 1012.19 1012.09 1012.09 1012.31 1012.50 1012.63 1012.59 1012.15 1011.70 1011.62 1011.70 1011.53 1011.19 1010.98 1010.83 1010.65 1010.37 1010.17 1010.11 1009.73 1009.69
1007.35 1008.01 1008.18 1008.46 1008.05 1008.15 1008.46 1008.42 1008.03 1007.56 1006.59 1006.32 1007.58 1006.72 1007.20 1009.31 1010.60 1011.42 1012.09 1012.42 1012.56 1012.56 1012.43 1012.23 1012.22 1012.30 1012.34 1012.37 1012.33 1012.29 1012.05 1011.65 1011.39 1011.13 1011.15 1011.06 1010.81 1010.52 1010.44 1010.34 1010.25 1010.16 1009.86 1009.77
1006.71 1007.09 1008.04 1008.69 1008.33 1008.34 1008.30 1008.36 1008.38 1008.58 1008.70 1008.37 1006.99 1006.96 1009.04 1010.19 1011.24 1011.95 1012.49 1012.69 1012.74 1012.91 1012.88 1012.52 1012.28 1012.23 1012.18 1012.02 1011.98 1011.89 1011.76 1011.42 1011.16 1010.88 1010.53 1010.42 1010.23 1009.99 1009.91 1010.06 1010.02 1009.65 1009.52 1009.30
1007.02 1007.64 1008.68 1009.25 1009.21 1009.25 1008.54 1008.37 1009.16 1009.29 1009.01 1007.78 1006.09 1006.38 1007.50 1009.75 1010.94 1011.99 1012.38 1012.75 1012.80 1012.95 1012.82 1012.47 1012.33 1012.17 1011.96 1011.82 1011.51 1011.44 1011.25 1010.96 1010.77 1010.51 1010.30 1009.78 1009.60 1009.47 1009.43 1009.47 1009.33 1009.02 1008.84 1008.66
1007.39 1007.51 1009.21 1009.58 1008.76 1008.36 1009.30 1009.16 1009.27 1009.57 1009.91 1009.02 1007.54 1006.88 1008.63 1009.85 1011.07 1011.88 1012.38 1012.63 1012.83 1012.81 1012.67 1012.41 1012.28 1012.27 1012.00 1011.73 1011.34 1011.17 1010.89 1010.52 1010.24 1010.00 1009.70 1009.47 1009.23 1009.05 1008.86 1008.64 1008.56 1008.48 1008.28 1008.14
1007.76 1007.89 1008.48 1008.92 1009.72 1009.70 1008.90 1008.95 1009.68 1010.22 1011.06 1010.61 1010.06 1007.72 1009.38 1010.47 1011.50 1012.11 1012.36 1012.53 1012.65 1012.63 1012.42 1012.25 1011.98 1011.86 1011.65 1011.47 1011.19 1010.78 1010.59 1010.32 1010.00 1009.68 1009.41 1009.07 1008.81 1008.67 1008.34 1008.20 1007.81 1007.74 1007.56 1007.59
1008.58 1008.29 1008.93 1009.83 1010.54 1010.45 1009.79 1010.06 1010.44 1011.32 1011.68 1010.80 1010.62 1008.43 1010.20 1010.92 1011.07 1011.48 1012.18 1012.76 1012.62 1012.36 1012.27 1012.06 1011.84 1011.75 1011.60 1011.44 1011.22 1010.92 1010.62 1010.39 1010.00 1009.57 1009.30 1008.86 1008.51 1008.25 1007.95 1007.69 1007.61 1007.37 1006.96 1006.87
1009.10 1008.55 1008.20 1008.02 1008.55 1008.77 1010.22 1010.55 1011.02 1011.53 1011.90 1011.17 1010.42 1009.47 1010.43 1010.65 1010.94 1011.89 1012.56 1012.71 1012.56 1012.38 1012.14 1011.89 1011.78 1011.75 1011.43 1011.14 1010.88 1010.75 1010.51 1010.40 1010.08 1009.66 1009.27 1008.77 1008.35 1008.04 1007.78 1007.77 1007.31 1007.01 1006.78 1006.63
1010.20 1009.55 1010.00 1010.34 1010.62 1010.63 1010.65 1011.02 1011.58 1011.96 1012.52 1012.14 1011.54 1010.84 1010.86 1011.62 1012.10 1012.49 1012.86 1012.66 1012.38 1012.34 1012.18 1012.15 1012.07 1011.77 1011.26 1010.98 1010.97 1010.70 1010.38 1010.22 1009.93 1009.45 1008.93 1008.60 1008.18 1007.85 1007.39 1007.10 1006.99 1006.72 1006.43 1006.32
1011.40 1011.61 1011.88 1012.07 1012.22 1012.17 1012.07 1012.06 1012.11 1012.39 1012.62 1012.25 1012.10 1011.85 1012.02 1012.51 1012.71 1012.64 1012.77 1012.75 1012.55 1012.63 1012.61 1012.46 1012.22 1011.87 1011.50 1011.19 1010.88 1010.66 1010.38 1009.82 1009.43 1009.10 1008.62 1008.27 1007.92 1007.44 1007.03 1006.60 1006.44 1006.18 1005.85 1005.66
1012.27 1012.56 1013.05 1013.08 1013.34 1013.61 1012.73 1011.79 1012.03 1012.33 1012.53 1012.59 1012.30 1012.35 1012.86 1012.83 1012.95 1013.09 1013.31 1013.24 1012.93 1012.72 1012.48 1012.04 1011.79 1011.53 1011.22 1010.84 1010.46 1010.06 1009.74 1009.40 1008.97 1008.44 1007.86 1007.44 1007.15 1006.98 1006.65 1006.27 1005.92 1005.76 1005.56 1005.40
1012.22 1012.86 1013.45 1013.78 1014.15 1013.58 1011.95 1012.17 1011.86 1012.41 1012.86 1013.10 1013.11 1013.01 1013.20 1013.48 1013.69 1013.63 1013.70 1013.30 1012.82 1012.49 1012.30 1011.97 1011.59 1011.14 1010.67 1010.32 1010.00 1009.59 1009.15 1008.58 1008.16 1007.68 1007.16 1006.73 1006.36 1006.10 1006.00 1006.00 1005.86 1005.77 1005.62 1005.43
1012.39 1012.84 1013.98 1014.10 1013.59 1012.38 1012.61 1012.49 1012.86 1013.05 1012.96 1013.05 1013.21 1013.41 1013.95 1014.11 1014.03 1013.14 1013.01 1012.94 1013.11 1012.97 1012.62 1012.01 1011.39 1010.77 1010.21 1009.76 1009.28 1008.71 1008.27 1007.87 1007.51 1007.00 1006.59 1006.07 1005.79 1005.71 1005.68 1005.58 1005.71 1005.98 1005.90 1005.53
1013.27 1012.87 1013.21 1014.05 1013.42 1012.06 1011.13 1012.34 1013.06 1013.37 1012.82 1013.60 1013.97 1014.08 1014.15 1014.30 1013.72 1012.44 1012.92 1013.66 1013.36 1013.01 1012.27 1011.39 1010.80 1010.36 1009.92 1009.19 1008.74 1008.13 1007.58 1007.16 1006.81 1006.55 1006.35 1006.29 1006.05 1005.92 1005.67 1005.77 1006.05 1006.34 1006.41 1006.04
1013.18 1013.61 1013.15 1013.14 1012.89 1011.76 1011.63 1012.79 1013.19 1013.19 1013.05 1013.60 1014.09 1014.25 1014.34 1014.29 1014.28 1013.73 1013.60 1013.42 1013.30 1012.54 1011.80 1011.21 1010.54 1009.86 1009.33 1008.79 1008.35 1007.65 1007.07 1006.55 1006.34 1006.18 1006.21 1006.24 1006.23 1006.16 1006.02 1005.99 1006.22 1006.39 1006.32 1006.06
1012.03 1012.51 1012.74 1012.80 1012.65 1011.67 1011.95 1012.75 1012.81 1012.60 1013.18 1013.73 1014.10 1014.23 1014.34 1014.45 1014.33 1014.04 1013.54 1013.00 1012.42 1011.92 1011.46 1010.90 1010.11 1009.60 1009.23 1008.90 1008.48 1007.69 1007.06 1006.54 1006.03 1005.96 1006.22 1006.40 1006.32 1006.18 1005.95 1005.96 1006.00 1006.11 1006.05 1005.76
1011.21 1010.79 1011.05 1011.34 1010.83 1011.15 1011.61 1011.61 1012.61 1013.09 1013.42 1013.77 1014.22 1014.36 1014.46 1014.38 1014.10 1013.85 1013.38 1012.91 1012.30 1012.02 1011.61 1011.20 1010.55 1009.66 1009.18 1008.87 1008.44 1007.51 1006.87 1006.67 1006.38 1006.01 1006.26 1006.20 1006.06 1005.95 1005.88 1005.80 1005.71 1005.73 1005.67 1005.41
1010.66 1010.83 1010.86 1011.07 1011.20 1011.47 1011.74 1012.08 1012.57 1013.09 1013.62 1014.10 1014.39 1014.40 1014.42 1014.29 1014.13 1013.73 1013.40 1013.00 1012.66 1012.23 1011.72 1011.32 1010.63 1009.82 1008.96 1008.54 1007.89 1007.33 1006.82 1006.36 1006.06 1006.10 1006.04 1005.90 1005.75 1005.66 1005.57 1005.51 1005.46 1005.30 1005.21 1005.00
1009.73 1010.47 1010.24 1010.45 1010.85 1011.54 1011.86 1012.07 1012.55 1013.40 1013.98 1014.20 1014.26 1014.38 1014.39 1014.29 1013.86 1013.78 1013.48 1013.29 1012.90 1012.43 1011.93 1011.20 1010.41 1009.48 1009.02 1008.54 1007.90 1007.25 1006.67 1006.10 1005.66 1005.19 1005.35 1005.40 1005.33 1005.25 1005.22 1005.18 1005.13 1004.97 1004.74 1004.62
1009.67 1009.24 1009.47 1009.76 1010.67 1011.18 1011.46 1012.16 1013.20 1013.69 1013.94 1014.14 1014.40 1014.43 1014.09 1013.94 1013.86 1013.74 1013.62 1013.51 1013.14 1012.62 1011.93 1011.15 1010.32 1009.70 1008.92 1008.19 1007.48 1006.87 1006.42 1006.01 1005.54 1004.92 1004.85 1004.94 1004.97 1004.91 1004.88 1004.85 1004.77 1004.78 1004.70 1004.46
Thickness
5673 5667 5676 5685 5684 5689 5687 5680 5684 5701 5705 5693 5694 5700 5709 5720 5714 5712 5692 5687 5681 5678 5679 5680 5680 5684 5688 5688 5691 5693 5693 5690 5693 5686 5681 5679 5679 5679 5681 5682 5680 5676 5672 5667
5658 5664 5684 5685 5680 5672 5672 5671 5680 5693 5696 5683 5692 5697 5707 5710 5700 5698 5687 5677 5672 5671 5668 5668 5670 5672 5675 5675 5674 5676 5677 5679 5682 5681 5679 5676 5675 5672 5672 5671 5674 5674 5669 5665
5664 5671 5676 5666 5663 5658 5665 5667 5673 5674 5685 5689 5689 5700 5705 5681 5677 5674 5672 5668 5664 5660 5661 5660 5659 5657 5656 5657 5658 5660 5661 5661 5660 5661 5666 5666 5665 5661 5660 5659 5660 5661 5660 5660
5657 5671 5659 5657 5657 5658 5655 5671 5663 5661 5660 5669 5675 5674 5693 5682 5674 5666 5659 5657 5651 5649 5650 5646 5646 5647 5645 5645 5646 5646 5644 5646 5645 5644 5648 5648 5649 5647 5644 5645 5648 5653 5653 5653
5652 5650 5648 5649 5656 5656 5655 5659 5653 5654 5655 5659 5666 5657 5695 5680 5667 5658 5653 5646 5643 5640 5637 5637 5635 5634 5634 5628 5630 5628 5630 5632 5630 5629 5629 5631 5631 5630 5632 5633 5631 5631 5633 5635
5649 5651 5650 5654 5652 5651 5651 5643 5645 5643 5645 5639 5664 5656 5682 5671 5662 5646 5637 5633 5630 5627 5626 5625 5627 5623 5620 5617 5614 5614 5613 5614 5613 5612 5609 5611 5612 5613 5616 5615 5615 5616 5617 5619
5635 5636 5645 5644 5638 5639 5642 5636 5631 5629 5628 5644 5652 5647 5666 5642 5636 5631 5624 5616 5614 5612 5613 5613 5612 5610 5606 5602 5599 5596 5597 5596 5595 5591 5591 5593 5593 5593 5594 5595 5595 5593 5596 5596
5627 5618 5635 5641 5642 5635 5633 5634 5624 5609 5643 5643 5629 5633 5642 5626 5617 5611 5606 5604 5600 5597 5596 5595 5592 5589 5587 5585 5582 5580 5577 5576 5574 5573 5570 5568 5568 5569 5568 5568 5567 5567 5570 5570
5628 5628 5633 5628 5636 5634 5624 5617 5636 5616 5615 5604 5632 5641 5613 5605 5597 5594 5589 5586 5583 5578 5575 5574 5576 5574 5571 5568 5565 5562 5558 5555 5552 5551 5551 5547 5543 5544 5542 5539 5539 5541 5540 5543
5626 5607 5612 5608 5615 5612 5619 5627 5602 5603 5584 5600 5636 5634 5621 5592 5588 5579 5577 5572 5568 5562 5561 5561 5558 5557 5556 5553 5549 5543 5539 5535 5531 5530 5529 5528 5522 5519 5517 5513 5512 5513 5514 5515
5617 5612 5591 5593 5601 5605 5596 5595 5598 5599 5586 5584 5602 5623 5594 5581 5575 5567 5563 5557 5551 5550 5547 5545 5543 5537 5534 5531 5530 5525 5520 5517 5512 5508 5506 5503 5499 5498 5498 5499 5499 5499 5499 5498
5606 5601 5584 5589 5583 5585 5598 5595 5588 5573 5560 5568 5566 5593 5580 5571 5562 5555 5547 5543 5542 5537 5534 5532 5528 5523 5518 5513 5507 5504 5497 5491 5486 5484 5483 5484 5483 5481 5482 5483 5485 5487 5488 5487
5587 5585 5567 5563 5565 5567 5573 5572 5571 5547 5542 5554 5546 5580 5561 5552 5552 5544 5537 5527 5524 5521 5517 5513 5507 5499 5493 5487 5481 5474 5468 5465 5463 5463 5464 5466 5466 5466 5467 5469 5468 5473 5476 5477
5572 5578 5582 5584 5578 5579 5557 5556 5551 5544 5529 5546 5543 5560 5544 5541 5537 5526 5515 5511 5507 5503 5500 5495 5487 5479 5472 5464 5458 5452 5445 5440 5440 5442 5445 5448 5450 5452 5454 5453 5456 5458 5460 5461
5554 5556 5555 5549 5546 5547 5548 5541 5532 5524 5519 5514 5529 5527 5530 5517 5511 5506 5495 5490 5488 5482 5475 5468 5459 5453 5450 5442 5432 5428 5426 5424 5423 5428 5431 5433 5435 5438 5442 5443 5444 5447 5450 5452
5532 5515 5520 5508 5515 5515 5515 5519 5514 5510 5509 5511 5507 5502 5507 5495 5493 5491 5477 5472 5467 5458 5450 5444 5437 5429 5422 5416 5414 5409 5409 5412 5413 5413 5417 5420 5422 5426 5429 5433 5434 5438 5442 5446
5508 5499 5490 5490 5501 5491 5490 5510 5507 5501 5498 5494 5490 5488 5480 5480 5475 5470 5455 5448 5443 5437 5429 5424 5417 5411 5405 5401 5399 5398 5399 5401 5401 5404 5409 5412 5413 5413 5416 5420 5424 5427 5430 5433
5498 5499 5493 5482 5477 5469 5502 5499 5499 5489 5483 5478 5474 5472 5463 5455 5452 5451 5432 5424 5422 5418 5412 5408 5405 5404 5402 5398 5393 5391 5391 5391 5391 5395 5399 5403 5405 5406 5409 5408 5410 5411 5415 5419
5495 5485 5458 5460 5471 5491 5472 5476 5470 5464 5470 5470 5461 5453 5439 5431 5426 5438 5421 5414 5402 5396 5395 5395 5397 5396 5396 5394 5393 5391 5389 5387 5382 5386 5389 5392 5394 5395 5397 5398 5397 5395 5396 5403
5465 5477 5473 5447 5449 5467 5482 5468 5457 5451 5450 5445 5434 5427 5423 5415 5408 5431 5414 5394 5390 5387 5387 5391 5391 5389 5385 5387 5384 5383 5383 5382 5381 5381 5378 5375 5377 5379 5382 5380 5378 5375 5374 5380
5443 5434 5442 5441 5443 5464 5464 5448 5442 5431 5440 5427 5420 5412 5405 5399 5392 5395 5391 5387 5381 5383 5383 5382 5382 5383 5381 5379 5376 5376 5376 5375 5374 5374 5370 5368 5365 5362 5361 5359 5357 5358 5362 5367
5435 5431 5428 5432 5425 5430 5447 5430 5427 5433 5420 5411 5403 5398 5390 5384 5381 5379 5381 5382 5382 5380 5378 5377 5378 5375 5371 5365 5361 5361 5362 5364 5366 5363 5358 5354 5352 5352 5353 5351 5348 5347 5351 5356
5437 5450 5445 5441 5446 5441 5433 5431 5416 5409 5402 5396 5387 5381 5377 5375 5374 5373 5373 5372 5374 5370 5367 5363 5361 5363 5359 5350 5344 5345 5347 5348 5349 5351 5345 5345 5346 5345 5342 5341 5341 5341 5342 5347
5432 5433 5429 5426 5426 5419 5414 5409 5401 5393 5385 5379 5373 5370 5368 5366 5364 5364 5362 5362 5360 5359 5356 5352 5350 5349 5349 5342 5337 5332 5332 5338 5341 5339 5337 5338 5338 5337 5334 5332 5330 5331 5333 5337
5430 5418 5422 5418 5414 5402 5397 5393 5387 5376 5371 5367 5365 5362 5358 5356 5357 5353 5352 5349 5348 5347 5345 5345 5344 5344 5339 5335 5331 5329 5330 5334 5337 5342 5338 5337 5336 5333 5330 5325 5322 5321 5325 5330
5414 5416 5411 5405 5400 5391 5387 5378 5367 5363 5360 5357 5354 5352 5353 5351 5348 5347 5343 5339 5337 5337 5337 5337 5336 5333 5330 5330 5331 5330 5329 5330 5333 5340 5339 5338 5335 5332 5329 5326 5324 5320 5321 5323